Voltar ao catálogo

FOSSASAT2E20

TAT-O

AtivoComunicaçõesSSO
NORAD 63003·PAYLOAD·🇪🇸 Spain

Lançado Jan 14, 2025 de Vandenberg Space Force Base

Loading…

Próximas Passagens (próximas 24 horas)

TLE

AtualizadoSource: Space-Track

Época: Sep 14, 2026, 12:23 UTC

1 63003U 25009DN  26257.51621997  .00010942  00000-0  35919-3 0  9996
2 63003  97.3096 332.1043 0003278  40.3939 319.7546 15.31753251150174

Acompanhe FOSSASAT2E20 em tempo real com AllMySat

Download on the App Store